User: anonymous   Login
Location: Saint-Denis
(20.8800°S, 55.4481°E)
Time: 08:44:37
(UTC+04:00)
Language:

OPS 4682 DEB - Orbit

View from above orbital plane
View from above orbital plane
View from above satellite
View from above satellite

Ground track
Ground track

The orbit data is extracted from the following two-line orbital elements,

1 38419U 65027DY  23325.34613257  .00000283  00000-0  98548-3 0  9991
2 38419  90.2454 345.1631 0032193 119.1907 241.2439 12.94704278179567
Epoch (UTC): 21 November 2023 08:18:25
Eccentricity: 0.0032193
inclination: 90.2454°
perigee height: 1258 km
apogee height: 1307 km
right ascension of ascending node: 345.1631°
argument of perigee: 119.1907°
revolutions per day: 12.94704278
mean anomaly at epoch: 241.2439°
orbit number at epoch: 17956

The dashed part of the orbit path shows where the satellite is in the earth's shadow,  

DLR